This is the latest recevied weather packets stored in our database for station/object N8QQQ. If no packets are shown the sender has not sent any weather packets the latest 10 day(s).
| Time | Temp. | Humidity | Pressure | Rain* | Wind** | Luminosity | Snow |
|---|---|---|---|---|---|---|---|
| 1777449302 | 1.67° C | 97% | 1014.1 hPa | 0 mm | - | 0 W/m² | - |
| 1777448997 | 1.11° C | 97% | 1013.9 hPa | 0 mm | - | 0 W/m² | - |
| 1777448695 | 1.11° C | 97% | 1014.1 hPa | 0 mm | - | 0 W/m² | - |
| 1777448392 | 1.11° C | 97% | 1014.2 hPa | 0 mm | - | 0 W/m² | - |
| 1777448088 | 1.11° C | 97% | 1014 hPa | 0 mm | - | 0 W/m² | - |
| 1777447783 | 1.11° C | 98% | 1013.9 hPa | 0 mm | - | 0 W/m² | - |
| 1777447480 | 1.11° C | 98% | 1013.7 hPa | 0 mm | - | 0 W/m² | - |
| 1777447176 | 1.11° C | 99% | 1013.7 hPa | 0 mm | - | 0 W/m² | - |
| 1777446876 | 1.11° C | 99% | 1013.7 hPa | 0 mm | - | 0 W/m² | - |
| 1777446572 | 1.11° C | 99% | 1013.7 hPa | 0 mm | - | 0 W/m² | - |
| 1777446267 | 0.56° C | 99% | 1013.6 hPa | 0 mm | - | 0 W/m² | - |
| 1777445966 | 0° C | 99% | 1013.4 hPa | 0 mm | - | 0 W/m² | - |
| 1777445661 | -0.56° C | 99% | 1013.8 hPa | 0 mm | - | 0 W/m² | - |
| 1777445356 | -1.67° C | 99% | 1013.8 hPa | 0 mm | - | 0 W/m² | - |
| 1777445053 | -1.67° C | 99% | 1013.7 hPa | 0 mm | - | 0 W/m² | - |
| 1777444749 | -1.67° C | 99% | 1013.9 hPa | 0 mm | - | 0 W/m² | - |
| 1777444445 | -2.22° C | 99% | 1013.8 hPa | 0 mm | - | 0 W/m² | - |
| 1777444143 | -2.22° C | 99% | 1013.9 hPa | 0 mm | - | 0 W/m² | - |
| 1777443838 | -2.22° C | 99% | 1013.9 hPa | 0 mm | - | 0 W/m² | - |
| 1777443534 | -2.22° C | 99% | 1014 hPa | 0 mm | - | 0 W/m² | - |
| 1777443230 | -2.22° C | 99% | 1014.1 hPa | 0 mm | - | 0 W/m² | - |
| 1777442928 | -2.22° C | 99% | 1014.2 hPa | 0 mm | - | 0 W/m² | - |
| 1777442624 | -2.22° C | 99% | 1014.1 hPa | 0 mm | - | 0 W/m² | - |
| 1777442319 | -2.22° C | 99% | 1014.4 hPa | 0 mm | - | 0 W/m² | - |
| 1777442017 | -2.22° C | 99% | 1014.6 hPa | 0 mm | - | 0 W/m² | - |
* Rain latest hour (hover to see other rain measurements)
** Current wind speed in m/s (hover to see current wind gust speed)